Regional Weather Roundup
Issued by NWS

Home | Current Version | Previous Version | Graphics & Text | Print | Product List | Glossary On
Versions: 1 2 3 4 5 6 7 8 9 10 11 12 13 14 15 16 17 18 19 20 21 22 23 24 25 26 27 28 29 30 31 32 33 34 35 36 37 38 39 40 41 42 43 44 45 46 47 48 49 50
000
ASUS43 KDTX 251301
RWRMI
MICHIGAN HOURLY REGIONAL WEATHER ROUNDUP
NATIONAL WEATHER SERVICE DETROIT/PONTIAC MI
900 AM EDT SAT OCT 25 2014

NOTE: "FAIR" INDICATES FEW OR NO CLOUDS BELOW 12,000 FEET WITH NO
SIGNIFICANT WEATHER AND/OR OBSTRUCTION TO VISIBILITY.

MIZ047>049-052>055-059>063-066>070-074>076-081>083-251400-
SOUTHEAST LOWER MICHIGAN

CITY           SKY/WX    TMP DP  RH WIND       PRES   REMARKS
ADRIAN         CLEAR     48  47  96 W3        29.87F FOG
ALMA           CLOUDY    54  51  92 W10G16    29.81R FOG
ANN ARBOR      CLEAR     49  46  90 W6        29.85S FOG
BAD AXE        MOCLDY    52  49  92 W10G17    29.75S
CARO           PTCLDY    52  48  89 SW9       29.77S FOG
DETROIT CITY   CLOUDY    55  48  77 SW10      29.83F HAZE
DETROIT        PTCLDY    53  49  86 SW10      29.84F FOG
FLINT          PTCLDY    54  48  80 SW9       29.81F
GROSSE ILE     PTSUNNY   54  50  87 SW6       29.83F FOG
HILLSDALE      MOCLDY    56  54  95 W8        29.87S FOG
HOWELL         MOCLDY    53  50  90 SW10G17   29.82F FOG

CITY           SKY/WX    TMP DP  RH WIND       PRES   REMARKS
JACKSON        CLOUDY    54  51  90 SW8       29.85S
LAMBERTVILLE   MOCLDY    55  50  82 SW8       29.87F HAZE
LANSING        CLOUDY    55  50  83 SW12      29.83S HAZE
LAPEER         FAIR      54  48  80 W10G16    29.80S
MASON          CLOUDY    55  50  86 SW6       29.84S
MONROE         PTCLDY    54  50  87 SW8       29.83F FOG
MT. CLEMENS    CLOUDY    53  50  89 SW9       29.79F
PONTIAC        MOCLDY    52  47  83 SW8       29.81F
PORT HOPE        N/A     52  46  80 SW9G16    29.71F
PORT HURON     CLOUDY    52  48  87 S3        29.79F FOG
TRI CITIES     CLOUDY    53  49  86 W13       29.79R FOG
TROY           MOCLDY    51  47  85 SW7       29.84S FOG
SAGINAW HB     MOCLDY    54  54 100 SW12      29.77S FOG
$$
MIZ043>046-050>051-056>058-064>065-071>073-077>080-251400-
SOUTHWEST LOWER MICHIGAN

CITY           SKY/WX    TMP DP  RH WIND       PRES   REMARKS
BATTLE CREEK   CLOUDY    57  52  83 W13       29.87S
BENTON HARBOR  CLOUDY    55  54  96 W10       29.89S FOG
BIG RAPIDS     CLOUDY    55  55 100 W7        29.80S FOG
COLDWATER      CLOUDY    56  54  93 W8        29.88S FOG
FREMONT        CLOUDY    54  53  95 W6        29.83S FOG
HOLLAND        CLOUDY    57  54  89 W9        29.87R FOG
GRAND RAPIDS   CLOUDY    56  53  90 W14       29.85S FOG
IONIA          CLOUDY    56  54  92 W13G21    29.83R FOG
KALAMAZOO      MOCLDY    57  53  86 W10       29.88R FOG
LUDINGTON      CLOUDY    55  53  95 W5        29.82R FOG
MARSHALL       CLOUDY    53  50  90 SW7       29.86R
MOUNT PLEASANT CLOUDY    54  51  92 W8        29.78F FOG
MUSKEGON       CLOUDY    57  53  86 W8        29.85R FOG
SOUTH HAVEN    CLOUDY    57  55  95 W6        29.88S FOG
$$
MIZ016>042-251400-
NORTHERN LOWER MICHIGAN

CITY           SKY/WX    TMP DP  RH WIND       PRES   REMARKS
ALPENA         CLEAR     53  49  86 SW7       29.67S
BEAVER ISLAND  CLEAR     52  50  95 W10G16    29.69F
BELLAIRE       CLEAR     54  51  89 SW7       29.74R
CADILLAC       PTCLDY    52  51  94 W9        29.77S
CHARLEVOIX     CLEAR     55  52  91 W18       29.74S
FRANKFORT      CLOUDY    54  51  89 W6        29.79R FOG
GAYLORD        MOCLDY    52  49  89 W12G22    29.71S
GRAYLING       CLOUDY    54  51  90 W9G17     29.74R FOG
HARBOR SPRINGS MOCLDY    55  51  87 W8G16     29.70S
HOUGHTON LAKE  CLOUDY    52  50  93 W8        29.75S FOG
MANISTEE       CLOUDY    54  48  82 W12       29.81R
OSCODA         CLOUDY    51  49  95 W8        29.70S FOG
PELLSTON       CLEAR     54  50  86 W14       29.69S
ROGERS CITY    CLEAR     54  52  94 W10G16    29.67R
TRAVERSE CITY  PTCLDY    55  50  83 W9        29.74R
$$
MIZ007>008-015-251400-
EASTERN UPPER MICHIGAN

CITY           SKY/WX    TMP DP  RH WIND       PRES   REMARKS
KINROSS        CLEAR     50  48  93 W6        29.63S
MACKINAC ISLAN PTCLDY    53  51  94 W15G21    29.66S
NEWBERRY       CLEAR     48  45  90 SW9G17    29.64S
S. S. MARIE    CLEAR     52  44  74 W12       29.61S
MUNISING         N/A     54  40  59 VRB5      29.67R
$$
MIZ004>006-011>014-085-251400-
CENTRAL UPPER MICHIGAN

CITY           SKY/WX    TMP DP  RH WIND       PRES   REMARKS
MANISTIQUE     CLEAR     49  47  92 W7        29.69R
ESCANABA       CLEAR     48  45  87 W9        29.71F
MENOMINEE      CLEAR     52  46  82 W5        29.78R
SAWYER-GWINN   CLEAR     48  39  71 W10       29.69R
$$
MIZ001>003-009>011-084-251400-
WESTERN UPPER MICHIGAN

CITY           SKY/WX    TMP DP  RH WIND       PRES   REMARKS
IRON MOUNTAIN  CLEAR     51  37  58 W12       29.74S
HOUGHTON       CLEAR     50  36  58 W28G33    29.71R
COPPER HARBOR    N/A     53  36  52 N17G29    29.66R
IRONWOOD       CLEAR     46  36  66 W13       29.81R
$$

ABBREVIATIONS USED IN REMARKS
   TC - TEMPERATURE IN CELSIUS
  WCI - WIND CHILL INDEX
   HX - HEAT INDEX
  VSB - VISIBILITY




USA.gov is the U.S. government's official web portal to all federal, state and local government web resources and services.